星链-2139 (STARLINK-2139 )

导读

STARLINK-2139是美国太空探索技术公司SpaceX星链星座中的一颗卫星,星链项目旨在为全球提供低轨高速卫星互联网服务。该星于北京时间2021年5月15日发射入轨,运行在近地轨道,承担卫星互联网通信任务,为偏远地区、移动载具提供宽带接入服务,是SpaceX构建全球星链网络的组成部分,助力实现全球全域的互联网覆盖。

Basic Information
目录编号:
48554
目录名称:
STARLINK-2139
国际标识:
2021-041B
轨道中心:
EARTH
卫星名称:
星链-2139
卫星全名:
星链-2139 (STARLINK-2139 )
卫星状态:
在轨 (已飞行1938 天)
发射日期:
2021-05-15 UTC
国别 :
美国 (US)
星等 :
--
Orbit Information
数据来源 国际轨道数据 AOE轨道数据
星历时间 2026-09-04T02:01:10+0800
17小时前
查看轨道信息
2026-09-02T08:00:00+0800
2天前
查看轨道信息
半长轴 6848.821km 6848.847km
偏心率 0.0001019 0.0001334
轨道倾角 53.162° 53.161°
近地点辐角 88.709° 104.071°
升交点赤经 18.069° 26.222°
平近点角 271.403° 316.344°
近地点 469.986km 469.796km
远地点 471.382km 471.624km
周期 94.012分钟 94.013分钟
每日圈数 15.317188 15.317103
Detailed Information
固有亮度:
5
最大亮度:
2.5
卫星平台:
Starlink V1.0
覆盖范围:
全球
运营商:
太空探索技术公司
运营商所在国:
美国
制造商(研发单位):
太空探索技术公司
制造商所在国:
美国
使用方式:
暂无
Satellite Introduction
星链(Starlink)计划是由太空探索技术公司(SpaceX)提出的一个巨型低轨卫星互联网星座项目,计划在2019年至2024年间在太空搭建由约1.2万颗卫星组成的“星链”网络,其中1584颗将部署在地球上空550千米处的近地轨道,并从2020年开始工作。该卫星仍在工作。
2D Orbit Map
3D Orbit Map
Orbit Altitude Analysis Chart
Orbit Inclination Analysis Chart
Orbit Comprehensive Analysis Chart
View Comprehensive Chart
Conjunction Data List
Event ID Objects TCA Miss Dist (km) Collision Risk Probability Collision Risk Index (CRI) Action
CDM_260906-081304-855406-975221
2026-09-06T
08:13:18+0000
2.478 km
极远距离
1.46578E-6 低风险 0.38
CDM_260906-153004-855406-050421
YAM-7 (60504)
2026-09-06T
15:30:49+0000
2.380 km
极远距离
1.240227E-6 低风险 0.37
CDM_260905-053804-855406-814521
2026-09-05T
05:38:15+0000
2.988 km
极远距离
1.197044E-6 低风险 0.37
CDM_260905-040204-855406-486021
2026-09-05T
04:02:49+0000
2.963 km
极远距离
1.147617E-6 低风险 0.36
CDM_260831-142404-855406-866521
2026-08-31T
14:24:38+0000
2.953 km
极远距离
1.123498E-6 低风险 0.36